Location: Recife
(8.0585°S, 34.8848°W)
Time: 11:16:05
(UTC-03:00)

Transit 2A Rocket - Pass Details

Date: 17 April 2026
Orbit: 587 x 895 km, 66.7° (Epoch: 14 May)

Event Time Altitude Azimuth Distance (km) Brightness Sun altitude
Rises 11:09:43 0° 358° (N) 2,820 8.2 71.2°
Reaches altitude 10° 11:12:09 10° 8° (N) 1,907 7.5 71.2°
Maximum altitude 11:15:54 31° 71° (ENE) 1,039 6.3 71.3°
Drops below altitude 10° 11:19:42 10° 134° (SE) 1,925 7.1 71.3°
Sets 11:22:09 0° 144° (SE) 2,851 7.8 71.3°
